Location: Dannhausen
(51.8650°N, 10.1026°E)
Time: 18:11:59
(UTC+00:00)

Cosmos 1812 Rocket - Pass Details

Date: 09 April 2020
Orbit: 606 x 631 km, 82.5° (Epoch: 04 June)

Event Time Altitude Azimuth Distance (km) Brightness Sun altitude
Exits shadow 19:25:21 15° 144° (SE) 1,653 5.2 -11.9°
Maximum altitude 19:28:14 30° 90° (E) 1,094 4.4 -12.3°
Drops below altitude 10° 19:32:03 10° 29° (NNE) 1,970 6.2 -12.8°
Sets 19:34:27 0° 19° (NNE) 2,879 7.2 -13.1°
